RH
43 41 38 37 36 37 38 40 40 41 42 44 46 46 45 44 42 40 38 37 36 34 32 30 28 28 28 27 26 26 23 22 20 19 18 17 16 15 14 14 13 13 14 14 14 14 13 14 15 17 21 23 24 25 26 28 29 32 38 45 54 64 77
43 40 38 37 37 38 39 40 41 41 42 43 43 43 42 41 39 37 35 34 33 33 31 29 27 26 26 26 25 24 23 21 19 17 16 15 14 14 14 14 13 13 14 15 15 15 14 14 15 16 18 21 24 25 25 26 27 28 29 31 36 43 52
44 41 39 38 38 39 40 42 42 43 43 43 42 41 40 38 37 35 33 31 31 31 30 29 27 25 24 23 23 22 21 20 18 16 15 13 13 13 13 13 14 16 18 19 20 20 18 17 16 17 19 21 23 26 27 27 27 27 28 29 30 33 37
45 42 40 40 41 42 43 43 43 43 42 41 40 39 37 36 35 34 32 30 29 29 29 28 27 25 23 22 21 21 19 18 17 15 14 13 13 13 14 17 21 24 26 27 27 28 27 24 20 19 21 23 25 26 27 28 28 27 28 29 30 30 31
47 44 43 43 44 45 45 44 42 42 41 39 38 37 36 35 34 33 31 28 27 27 28 28 26 25 23 21 20 19 18 17 15 14 14 13 13 15 20 25 27 28 27 27 28 29 30 30 27 24 23 25 29 30 30 30 30 30 29 29 30 30 30
49 47 46 46 47 47 45 43 41 40 38 37 37 36 35 34 32 31 30 27 25 25 26 26 25 24 22 20 19 18 17 16 14 14 13 13 16 21 26 27 26 25 24 24 24 25 28 32 34 33 30 29 31 34 35 34 33 33 33 32 31 31 31
52 50 49 49 48 46 44 41 39 38 37 36 36 34 33 31 29 28 27 25 23 23 24 24 23 22 21 19 18 17 16 15 14 13 13 16 21 25 25 23 23 22 20 19 20 21 25 31 37 40 39 37 35 37 39 40 40 39 38 36 35 34 33
54 52 51 50 47 44 42 40 38 38 37 36 35 32 29 27 25 24 23 23 22 22 22 22 21 21 20 19 18 16 15 14 14 14 16 21 25 24 22 21 21 20 18 17 17 19 23 29 37 44 47 46 43 42 43 45 45 44 43 42 41 40 38
54 53 51 48 45 42 39 38 37 38 38 37 34 31 28 26 23 22 21 21 21 20 21 21 20 20 19 17 17 15 14 14 14 16 21 26 25 23 21 21 20 19 19 18 18 21 24 30 39 47 54 57 55 52 50 50 50 51 50 49 48 46 44
53 51 48 44 41 38 37 38 40 43 42 39 34 29 26 24 21 20 20 20 19 19 19 19 19 18 17 17 16 14 14 15 16 21 26 27 24 23 22 21 21 21 20 20 20 23 27 34 42 50 59 65 66 63 60 58 58 59 58 56 56 55 52
49 45 42 39 37 37 39 41 45 46 42 35 29 25 22 20 19 19 19 19 18 18 17 17 18 17 16 16 14 14 16 18 21 26 29 26 25 25 24 23 22 22 22 23 23 24 27 34 41 49 58 64 68 69 68 67 66 65 64 62 60 59 57
44 40 38 38 38 39 41 45 47 45 37 29 23 20 19 18 18 18 18 18 17 17 16 16 16 15 16 15 14 17 21 22 26 30 29 27 27 26 25 25 24 24 24 25 26 27 28 31 36 42 50 57 63 68 71 72 73 72 72 71 68 66 63
39 37 37 38 42 47 52 55 51 40 29 22 19 18 18 18 18 18 17 17 16 16 16 15 15 15 14 14 17 23 25 25 29 32 30 29 30 29 28 27 26 26 26 26 28 30 31 32 34 37 42 48 56 63 68 70 71 73 74 75 75 73 70
35 34 37 43 53 60 61 54 40 27 21 19 17 17 17 17 17 17 16 16 15 15 15 15 15 14 14 18 26 29 28 29 32 32 31 32 32 31 31 30 30 30 30 29 29 30 32 34 36 39 42 46 50 56 61 65 68 72 73 74 75 74 73
33 35 40 48 56 56 46 33 23 18 18 17 16 16 16 16 17 16 15 15 15 15 15 15 14 15 19 28 33 31 29 32 34 32 33 34 34 33 33 33 34 34 34 34 33 33 33 34 36 39 43 47 50 52 56 60 63 67 70 72 74 75 75
34 37 41 44 42 35 26 19 17 16 16 16 15 15 15 15 15 14 15 15 15 15 15 14 15 21 31 36 33 31 33 35 34 34 35 36 35 36 36 36 37 38 38 39 38 38 37 37 37 39 40 43 47 50 54 58 60 63 65 68 69 70 71
35 39 40 36 29 21 17 16 15 15 15 15 15 15 14 14 14 14 14 14 15 15 14 16 23 32 38 36 32 34 37 36 36 37 38 38 38 38 39 39 41 42 43 44 44 43 43 42 41 42 42 43 45 47 51 56 60 63 65 67 67 68 71
37 38 33 26 20 17 16 15 14 14 15 15 14 14 14 14 14 14 15 15 15 15 17 26 35 39 38 34 35 39 39 38 39 41 41 41 41 41 42 43 45 46 48 50 51 50 50 49 48 47 47 48 50 50 52 54 57 59 60 62 64 66 70
35 30 22 18 17 15 15 14 13 14 14 14 14 14 14 15 15 14 15 16 15 18 27 37 42 39 36 37 40 42 42 42 44 45 45 45 45 46 47 48 49 51 53 55 57 58 58 58 58 57 55 55 55 56 58 59 59 60 59 60 62 63 65
25 20 16 16 16 14 14 14 13 14 14 14 14 14 14 15 15 14 16 16 17 27 39 44 43 40 40 42 45 46 46 48 50 50 51 51 51 51 52 52 53 56 58 60 62 63 64 65 65 65 65 64 63 63 63 63 63 64 64 65 67 68 68
17 16 16 17 17 16 15 15 14 14 14 14 14 14 15 16 15 15 17 19 25 38 47 46 44 44 44 47 50 50 49 52 55 56 57 57 57 57 57 59 61 63 65 67 69 71 73 73 74 74 75 75 74 74 73 72 72 71 70 71 72 72 73
17 19 22 24 25 23 20 18 16 15 14 14 15 14 15 16 16 17 20 25 37 47 50 47 46 47 48 50 53 53 53 56 58 60 63 64 64 64 65 68 71 73 75 78 80 82 84 85 86 88 88 87 86 86 85 83 82 81 81 80 79 78 77
27 32 37 40 40 38 34 30 26 21 17 15 15 15 15 16 18 20 23 33 47 53 52 50 49 49 51 52 53 53 54 56 59 63 68 71 70 71 74 77 80 84 87 89 91 92 94 97 99 100 101 101 100 99 98 97 97 97 96 95 94 93 91
47 52 55 57 56 55 52 48 43 37 30 23 18 16 15 17 21 24 29 41 54 57 55 53 51 51 52 53 53 54 56 58 62 67 71 74 76 79 82 86 89 93 96 98 100 101 103 105 107 107 107 108 107 106 106 106 107 108 107 106 106 106 104
65 66 66 66 65 65 63 61 58 54 48 41 33 26 21 21 26 32 39 51 60 60 58 58 56 56 57 57 58 61 63 67 71 76 79 81 83 84 86 88 93 98 101 104 106 107 107 107 107 107 107 107 107 106 106 106 106 107 109 109 108 107 107
73 72 71 70 70 72 72 71 69 66 63 58 52 46 38 35 38 44 51 58 64 65 65 65 65 66 66 67 69 72 74 77 80 82 83 83 83 83 83 86 90 95 99 103 106 107 106 105 104 104 104 104 103 102 102 103 104 105 106 105 106 108 107
75 73 71 69 70 72 74 77 77 75 72 70 67 64 58 53 54 59 64 68 70 70 70 71 72 74 73 72 74 75 75 76 76 75 74 74 74 75 78 82 88 93 98 102 104 106 106 105 105 104 103 103 104 104 105 106 106 106 104 102 104 107 106
69 65 61 58 57 58 61 66 69 70 72 73 74 73 71 68 67 69 74 78 79 78 78 78 78 79 78 76 75 74 73 72 72 72 72 72 74 77 82 87 93 99 103 106 107 108 108 107 105 103 101 101 103 105 107 107 108 110 107 104 105 107 107
56 52 49 48 48 49 50 53 55 55 58 62 65 68 70 71 72 74 77 80 82 83 84 85 84 83 81 79 77 75 75 75 76 77 78 79 81 84 89 94 99 104 107 108 108 109 108 107 105 102 99 99 101 103 104 104 106 108 107 108 110 110 108
47 47 47 47 48 48 48 50 50 50 50 52 54 57 61 63 66 70 73 76 78 80 81 83 84 83 82 80 79 79 79 80 81 83 85 86 88 90 93 97 100 102 103 104 106 108 109 109 107 104 102 102 103 103 104 105 107 108 107 110 111 109 107
47 48 49 49 49 49 49 49 49 49 50 50 51 53 55 57 58 60 62 65 69 73 77 79 80 81 80 80 80 81 82 82 84 86 88 89 91 94 97 100 101 101 102 104 109 112 112 111 108 106 106 106 106 106 106 107 108 108 108 109 109 107 106
51 51 51 51 51 51 51 51 51 51 51 51 52 53 54 55 56 55 55 56 59 64 70 74 76 77 78 79 80 80 81 81 81 83 86 90 93 97 100 102 102 102 104 107 110 111 111 110 109 109 109 107 107 108 107 106 107 108 106 107 108 106 104
55 54 54 54 54 54 55 55 55 55 55 55 56 56 56 57 57 56 56 56 56 58 61 64 67 70 73 76 79 81 83 84 84 85 87 90 94 98 100 102 103 105 107 108 108 108 108 108 108 109 109 108 109 110 110 109 110 110 108 107 109 109 107
58 58 58 58 58 58 59 60 60 61 61 60 60 61 61 62 61 61 60 59 58 58 58 58 61 63 67 71 74 78 82 85 86 87 88 89 91 92 95 98 100 103 104 104 102 102 101 101 101 102 103 104 106 108 109 109 108 108 107 106 107 107 105
61 61 62 63 63 64 64 65 65 65 65 65 65 66 66 66 66 66 65 64 63 62 61 60 61 62 64 67 70 74 79 83 88 91 94 96 97 96 97 99 100 101 102 102 101 101 100 98 97 96 96 96 97 99 101 102 103 102 101 98 97 96 95
63 64 65 65 66 67 67 68 68 68 68 68 68 68 69 69 69 69 67 66 64 63 62 62 62 62 63 65 67 70 73 77 81 86 89 92 94 95 95 96 98 100 103 105 106 105 103 99 95 93 90 89 89 90 91 91 92 92 93 93 93 93 93
Wind_Speed
67 67 66 66 65 65 66 66 66 66 66 67 68 69 71 72 73 73 74 75 75 76 76 77 77 77 77 78 79 79 80 81 81 82 83 84 85 85 84 83 82 81 80 81 80 79 79 79 81 83 86 88 90 92 93 95 97 99 102 106 108 111 113
69 69 68 68 67 68 68 68 69 69 70 70 71 72 73 74 74 75 76 77 77 78 78 79 79 79 79 80 80 80 81 81 81 81 81 81 82 82 82 82 82 81 81 81 80 78 78 79 80 82 83 85 88 90 93 95 96 98 99 101 103 106 109
70 70 70 69 69 70 70 71 72 72 72 73 74 74 75 76 76 77 78 79 79 79 80 80 80 81 81 81 81 81 81 81 81 80 79 78 78 78 79 80 79 79 79 79 78 77 77 78 79 81 82 84 86 88 91 93 95 97 97 98 100 102 104
71 71 71 71 71 71 72 73 74 74 75 76 76 77 77 78 79 79 80 80 80 80 80 81 81 82 82 82 82 82 82 81 80 78 77 76 76 76 76 76 75 75 75 75 75 75 75 77 78 79 81 83 85 87 89 92 94 95 97 98 99 100 101
72 72 72 72 73 73 74 75 76 77 77 78 78 79 80 81 81 81 81 81 81 81 81 81 81 82 82 82 82 81 81 80 79 77 75 74 74 72 71 70 71 71 72 72 72 72 73 74 76 77 79 82 85 87 88 90 92 94 96 97 99 99 100
73 73 73 73 74 75 76 77 78 79 79 80 81 82 82 83 83 83 82 82 82 81 81 81 81 82 82 82 81 80 79 78 76 74 73 73 71 68 66 65 66 67 68 69 69 70 71 72 73 75 78 80 83 86 87 89 90 92 94 96 98 99 99
74 74 74 75 76 77 78 79 80 81 82 83 84 85 86 86 86 85 83 82 82 81 80 80 80 81 81 81 80 79 77 76 73 72 70 69 66 64 62 61 60 61 62 64 65 66 68 70 71 73 76 78 81 83 86 88 89 90 92 94 96 97 99
75 75 76 76 77 78 79 80 82 83 85 86 88 89 89 89 88 86 84 81 80 80 80 79 79 79 79 78 78 77 75 73 70 68 66 64 61 59 57 56 55 56 56 58 60 62 63 66 68 71 74 76 78 81 83 86 88 89 90 91 93 95 97
77 77 77 78 79 80 81 83 85 87 89 90 91 91 90 90 88 86 83 80 79 79 79 78 78 77 76 75 75 74 72 69 66 64 61 58 56 54 52 51 51 52 52 53 54 56 58 61 64 67 70 73 75 78 80 82 85 87 88 89 91 93 94
78 78 79 80 81 83 84 86 88 90 92 92 92 91 90 88 86 83 80 78 78 77 77 77 76 75 73 72 71 70 67 65 62 59 56 53 51 49 48 48 48 49 49 49 49 51 53 56 59 63 67 70 73 75 77 79 82 84 86 87 89 90 92
80 80 81 83 84 85 86 88 91 93 94 93 91 89 87 85 83 80 78 77 76 75 74 74 73 72 70 69 68 65 63 60 57 54 51 49 47 45 45 45 45 45 45 45 46 47 49 52 55 58 62 66 69 72 74 76 79 81 83 85 86 87 89
81 82 83 84 86 87 89 92 94 96 95 92 89 86 83 81 79 77 76 75 74 73 72 71 70 69 67 66 64 61 58 55 52 49 47 44 43 42 42 42 41 41 42 43 43 45 46 49 52 54 57 60 64 67 69 72 75 77 80 81 83 84 85
83 84 84 86 88 91 93 96 96 95 92 88 85 82 80 78 76 75 73 72 71 69 68 67 66 65 63 62 60 57 54 50 48 45 43 41 40 40 40 39 38 38 39 40 41 42 44 46 48 50 53 56 59 61 64 67 69 72 74 77 79 80 82
85 85 86 88 90 93 95 95 94 91 87 84 82 79 76 74 73 71 70 68 67 65 64 64 63 61 59 58 56 53 50 47 45 43 41 39 39 39 38 37 37 36 37 38 39 40 41 42 44 46 49 52 54 57 60 62 65 67 69 72 74 76 78
86 87 87 89 91 92 92 90 88 85 82 80 78 75 72 71 70 68 66 64 62 61 61 60 59 58 57 55 52 49 46 45 43 41 39 39 39 39 38 36 36 36 36 37 38 39 39 40 41 43 45 47 49 52 54 57 60 62 65 67 69 71 73
87 88 88 89 89 88 86 83 81 80 78 77 75 73 70 68 66 64 62 60 58 58 57 57 56 55 53 51 48 46 44 43 42 40 39 40 40 39 37 37 36 36 36 37 37 38 39 40 41 42 42 44 45 47 49 51 54 57 59 62 64 66 68
87 88 89 88 86 82 79 77 76 75 75 73 72 70 68 66 63 61 58 56 55 54 53 53 53 52 50 47 44 43 43 42 41 40 40 41 41 39 38 37 37 36 36 37 38 39 40 41 42 43 43 44 44 45 47 49 50 53 55 57 58 60 62
87 87 86 83 80 77 75 73 72 72 71 70 68 66 64 63 61 58 55 54 53 51 51 50 50 48 46 43 42 42 42 42 41 41 41 42 41 40 40 39 38 38 38 38 39 40 41 42 43 43 44 45 46 47 48 49 50 52 53 54 55 56 57
85 84 80 77 75 73 71 70 69 69 68 67 65 63 61 60 58 55 53 52 51 50 49 48 47 45 43 41 41 41 42 41 41 42 43 43 42 42 42 41 41 40 40 41 41 42 43 44 44 45 46 46 47 48 50 51 52 53 53 54 54 55 56
80 77 74 72 71 69 68 67 66 66 65 64 62 60 58 57 55 53 51 51 50 48 47 46 44 42 40 40 41 42 42 42 42 43 44 44 44 44 44 44 43 43 43 44 45 46 46 47 47 48 48 49 50 51 52 53 53 54 54 55 56 57 58
73 71 69 68 67 66 65 64 64 63 62 61 60 57 55 55 53 51 50 50 49 47 45 44 42 41 40 42 43 43 44 43 44 44 45 45 46 46 46 45 46 46 47 47 48 49 50 50 51 51 52 52 53 53 54 55 55 56 56 57 58 59 60
68 66 65 63 62 61 61 61 61 60 60 59 57 55 54 53 52 50 50 49 48 46 44 43 42 41 42 44 45 45 46 46 46 47 47 47 48 48 48 48 48 48 49 50 51 52 53 53 54 55 55 56 56 57 58 58 58 59 59 60 61 62 63
62 60 59 58 58 57 58 58 57 57 57 56 56 54 53 53 52 51 50 49 48 46 44 43 42 42 43 45 47 48 49 49 49 49 49 50 50 50 50 51 51 51 52 53 54 55 55 56 57 57 58 59 60 61 61 61 61 62 62 63 64 65 66
57 56 56 56 56 57 57 56 56 56 55 55 54 54 53 53 53 52 51 50 48 47 45 44 44 44 45 47 49 50 51 52 52 52 52 53 53 53 54 54 54 55 56 57 57 58 58 59 60 61 61 62 63 64 64 64 64 65 66 67 68 69 70
56 57 58 58 59 58 58 57 56 55 55 54 54 53 53 53 53 53 52 50 49 48 48 46 46 46 47 49 50 51 53 53 54 54 55 56 56 57 57 57 57 58 59 60 61 62 62 63 63 64 65 65 66 66 67 68 68 69 70 71 72 73 74
60 61 61 61 61 60 59 58 57 56 55 54 53 53 52 52 52 53 52 51 51 51 50 49 48 49 50 51 53 54 55 56 56 57 58 59 59 60 60 61 61 62 63 64 65 65 66 66 67 68 68 69 69 70 70 71 71 72 73 74 75 76 78
63 63 62 61 60 59 58 58 57 56 56 54 53 53 52 51 51 52 53 53 53 53 53 52 52 53 54 55 56 58 59 60 60 61 62 63 63 63 64 65 65 66 67 68 69 70 70 71 71 72 72 73 73 73 74 74 75 75 76 77 78 80 82
63 61 60 58 57 56 56 56 56 56 55 55 55 54 53 51 50 51 53 54 54 55 55 55 56 57 58 59 61 62 63 63 64 65 66 66 67 67 67 68 69 70 71 72 73 74 74 75 76 76 76 76 77 77 77 77 78 79 79 80 81 83 85
60 58 57 56 55 55 55 55 56 55 55 55 56 56 56 54 53 53 54 55 56 57 58 58 59 61 62 63 65 66 67 67 68 69 69 70 70 70 71 72 73 74 75 76 76 77 78 78 79 79 79 79 79 79 79 79 80 81 82 82 84 85 87
59 58 57 57 57 57 57 57 58 57 56 56 57 58 58 58 57 57 57 58 58 59 61 62 63 65 66 68 69 70 71 72 73 73 74 74 74 74 75 76 77 78 78 78 79 80 80 81 81 81 81 81 81 81 81 81 82 83 84 85 86 88 90
61 61 61 61 61 61 61 61 61 61 61 60 60 61 62 62 62 62 62 62 62 63 65 66 68 69 71 72 74 75 76 77 77 77 77 78 78 78 78 79 80 80 80 80 81 82 83 83 83 83 83 83 84 84 84 84 85 86 87 88 90 91 92
64 65 65 66 66 66 67 67 67 67 67 66 65 66 66 67 67 67 67 66 66 67 68 70 71 73 74 76 77 78 79 80 80 80 80 80 80 80 81 81 82 82 82 83 84 85 85 86 86 86 86 86 86 87 87 88 88 89 90 91 92 93 94
69 70 70 71 71 72 72 72 73 73 73 73 72 72 72 73 73 73 73 73 72 72 73 74 75 76 77 78 79 80 81 82 82 82 82 82 83 83 83 84 84 85 85 86 87 88 88 88 89 88 88 89 89 90 90 91 92 93 94 94 95 96 97
74 75 75 76 76 77 77 77 78 78 79 79 79 78 78 78 79 79 79 79 79 79 79 79 79 80 80 81 82 83 83 84 85 85 85 86 86 86 86 86 87 88 88 89 90 90 91 91 92 92 92 92 92 93 94 95 96 97 97 98 99 99 100
78 79 80 80 81 81 81 82 82 83 83 83 83 83 83 83 83 83 84 84 83 83 83 83 84 84 84 85 85 85 86 87 87 88 88 89 89 89 89 89 90 91 92 93 93 94 94 95 95 95 95 95 95 96 96 97 98 99 100 101 101 101 102
83 83 84 84 84 85 85 85 86 86 86 87 87 87 87 87 87 87 87 87 87 87 86 86 86 87 87 87 88 88 89 89 90 90 91 91 92 92 92 92 92 93 94 95 96 97 97 98 98 98 98 97 97 97 98 99 100 100 101 102 102 102 103
Wind_Direction
298 298 297 296 295 295 295 295 295 294 294 295 295 295 294 293 292 291 290 289 288 287 286 285 284 283 282 281 280 279 279 278 277 276 275 274 274 274 274 273 273 272 270 268 265 263 260 257 254 253 252 252 252 251 251 250 249 249 248 247 246 246 245
298 297 296 296 295 295 295 295 295 294 294 294 294 293 293 292 291 290 289 288 287 286 286 285 284 283 282 281 280 279 279 278 278 277 276 275 274 273 272 272 272 271 269 268 266 263 260 258 255 253 252 251 252 252 252 251 250 250 250 250 249 249 248
298 297 297 296 296 296 296 295 294 294 294 294 293 292 292 291 290 289 289 288 287 286 285 284 284 283 282 281 280 280 279 279 279 278 278 277 275 273 273 272 271 270 268 267 265 263 261 258 256 254 252 251 250 250 251 251 251 251 251 251 251 251 250
298 297 297 297 297 296 296 295 294 294 293 293 292 292 291 291 290 289 288 287 286 285 284 283 283 282 282 281 280 280 280 280 280 280 279 277 275 274 273 272 271 269 268 267 265 263 260 258 256 254 252 251 251 250 250 250 251 251 251 251 251 251 251
298 298 298 297 297 296 295 294 293 293 293 293 292 292 291 291 290 289 288 286 285 284 283 282 281 281 281 280 280 280 280 281 281 280 279 277 276 274 272 271 270 269 267 266 264 262 260 258 256 254 252 251 250 250 250 250 250 251 251 251 251 251 251
299 299 298 298 297 295 294 293 293 292 292 292 292 292 291 291 290 288 287 286 284 283 282 281 280 280 280 279 280 280 280 280 280 280 279 278 276 274 272 271 269 268 266 265 263 262 260 258 257 255 253 251 250 250 250 250 250 251 251 251 251 252 252
300 300 299 298 296 295 294 293 293 292 292 292 292 292 291 290 289 287 286 284 283 282 281 280 279 279 279 279 279 279 280 280 279 279 278 276 275 274 273 271 270 268 266 264 263 261 259 258 257 255 254 252 251 250 250 250 251 251 251 252 252 252 252
301 301 299 298 296 295 295 294 294 294 294 294 293 293 291 290 289 287 286 284 282 281 279 278 278 278 278 278 279 279 279 279 278 277 275 274 273 273 273 273 272 271 268 266 263 261 259 258 256 255 255 254 253 251 251 251 251 251 252 252 252 253 253
302 301 299 298 297 296 296 295 296 296 296 296 295 295 293 291 290 288 286 284 282 280 279 278 278 277 277 277 277 277 278 278 277 274 272 271 271 272 273 274 274 273 271 269 266 263 261 259 257 256 255 255 254 253 253 252 252 252 253 253 253 253 254
301 300 299 297 297 296 297 298 298 299 299 298 298 296 294 292 290 288 286 284 281 280 279 278 278 278 277 276 276 276 276 276 274 270 268 269 270 272 274 275 275 274 273 271 268 265 262 260 258 256 255 255 254 254 254 253 253 253 253 254 254 254 255
300 299 298 297 297 298 299 300 301 301 300 299 298 297 294 292 290 288 286 284 282 280 279 278 278 277 276 275 275 275 274 273 269 266 265 267 269 272 274 274 275 275 275 273 271 267 264 261 259 258 256 255 255 255 255 255 255 254 254 255 255 255 256
300 299 299 300 300 301 301 302 302 301 301 300 298 296 294 292 290 288 286 284 282 281 279 278 278 277 276 275 274 274 273 269 263 261 263 265 267 270 272 273 275 276 276 275 273 270 267 263 261 260 258 257 257 256 256 256 256 256 256 256 257 257 257
301 301 301 302 303 304 305 304 303 302 301 300 298 296 294 292 290 288 286 284 282 281 280 279 277 276 275 275 274 274 270 263 258 258 260 263 265 267 269 271 274 275 276 276 274 272 270 267 265 263 261 260 259 258 258 257 257 257 257 257 258 258 258
301 302 303 305 306 306 306 305 303 301 300 299 297 296 294 292 290 288 287 285 283 281 280 278 277 276 276 275 274 271 264 257 254 255 257 260 262 265 267 269 271 273 274 275 274 274 272 269 267 265 263 262 261 261 260 260 259 259 259 259 258 259 259
302 303 304 305 306 305 304 302 301 300 300 298 297 296 294 292 290 288 287 285 283 281 279 278 278 277 276 275 272 266 257 252 251 254 256 258 261 263 266 268 269 271 272 273 274 274 273 272 269 266 264 262 262 262 261 261 261 261 260 260 260 260 260
303 304 304 304 304 303 302 301 301 300 299 298 297 296 295 293 291 289 287 285 282 280 278 278 278 277 276 273 268 259 251 249 251 253 255 258 260 263 265 267 269 270 272 273 273 274 274 273 272 270 268 265 263 262 261 261 261 261 261 261 261 261 261
305 305 305 304 304 303 302 301 301 300 299 298 298 296 295 293 291 290 288 285 282 280 279 278 277 276 274 269 261 252 248 248 251 253 256 258 261 263 264 266 268 270 271 273 274 274 274 274 273 273 273 271 269 267 265 263 262 261 261 261 261 261 262
305 305 305 304 303 303 302 301 301 300 299 298 297 296 295 293 292 290 288 285 282 281 279 278 276 274 271 263 253 248 247 249 252 254 257 259 261 263 264 266 267 269 270 272 274 275 275 275 274 274 274 274 273 272 271 269 267 266 265 264 263 263 262
306 305 304 303 303 302 302 301 301 300 299 298 297 296 295 293 291 290 287 284 282 281 279 276 274 272 266 256 248 247 248 250 253 256 258 260 263 264 265 266 267 269 270 271 272 273 274 274 274 274 273 273 273 273 273 272 271 271 271 270 269 267 266
304 303 303 302 302 301 301 301 301 300 299 298 297 296 294 292 290 288 285 283 282 280 277 274 271 267 259 251 247 247 249 251 254 257 260 262 263 264 266 268 269 270 270 271 272 272 273 274 274 274 274 274 273 273 272 272 273 273 273 273 272 272 271
303 302 302 301 301 301 301 301 300 300 299 298 297 296 293 290 288 286 284 282 281 277 274 271 268 262 255 250 248 249 251 253 255 258 260 262 263 265 267 269 270 271 272 272 273 273 274 274 275 275 275 274 274 273 273 273 273 273 273 273 273 272 272
302 302 302 302 302 302 301 301 300 299 299 298 297 295 293 290 287 285 283 281 279 274 271 268 264 259 255 252 252 253 254 256 258 260 261 263 264 266 267 269 269 270 271 272 273 274 275 275 276 276 276 276 275 275 275 274 275 275 274 274 274 273 273
302 302 303 303 304 303 302 301 301 300 299 297 296 294 292 290 287 285 283 280 276 271 268 266 262 259 257 256 256 256 258 259 260 261 262 264 265 267 268 269 270 270 271 272 272 273 274 274 275 275 276 276 276 276 276 276 276 276 275 275 275 275 274
303 303 303 303 303 302 302 301 301 300 299 297 296 294 292 290 287 285 283 279 274 270 267 265 262 259 258 258 258 259 260 261 262 263 264 265 266 267 268 269 270 271 272 273 273 273 274 274 274 274 275 275 275 276 276 276 276 276 275 275 275 275 274
302 302 301 301 300 300 300 299 299 298 298 297 296 295 293 290 288 285 282 278 273 269 266 265 263 262 261 260 260 261 262 263 263 264 265 266 267 268 269 271 272 272 273 274 274 274 275 275 275 275 275 275 275 276 275 275 275 275 275 275 275 275 275
301 300 300 299 298 298 297 297 296 296 296 297 296 295 293 291 288 285 282 277 273 269 267 266 265 264 263 263 263 263 263 264 265 266 267 268 269 270 271 272 272 273 274 274 274 274 275 275 275 274 274 274 274 274 274 275 275 275 275 275 276 276 276
300 299 299 298 298 297 297 296 296 296 296 296 296 295 294 292 289 286 282 278 274 270 269 267 267 266 266 266 266 266 266 266 267 268 269 269 270 271 272 273 274 274 274 274 274 274 274 274 274 274 274 273 273 274 274 274 275 275 275 275 275 276 276
299 299 298 298 298 297 297 297 296 296 296 296 295 294 293 291 289 286 283 280 276 273 271 270 270 270 269 269 269 269 270 270 270 271 271 272 273 273 274 274 274 275 275 275 275 275 274 274 274 274 274 273 274 274 274 274 274 274 274 275 275 275 275
299 298 298 298 298 298 298 297 297 297 296 296 295 294 292 291 288 286 283 281 278 276 274 273 272 272 272 272 272 272 272 272 272 273 273 274 274 274 274 275 275 274 274 275 275 275 275 275 275 275 275 275 275 275 275 275 274 274 274 274 274 274 274
299 299 299 299 299 298 298 297 297 297 296 295 295 294 292 291 289 286 283 281 279 277 276 274 274 273 272 272 273 273 273 273 273 274 274 274 275 275 275 275 275 275 275 276 276 276 276 276 276 276 276 276 276 276 276 275 275 275 275 275 275 274 274
300 300 300 300 299 299 298 297 297 296 296 295 294 293 292 291 289 287 285 283 281 279 278 276 275 274 274 273 273 273 274 274 274 274 275 275 276 276 276 276 276 276 276 277 277 277 276 276 276 276 276 276 276 276 276 276 275 275 274 274 274 273 273
301 301 300 300 300 299 299 298 297 297 296 295 294 293 292 291 290 288 287 285 283 281 279 277 276 275 275 275 274 274 274 275 275 275 275 275 276 276 276 276 276 276 277 276 276 276 276 276 276 276 276 276 276 276 275 275 274 274 273 273 273 273 273
301 301 300 300 300 299 299 298 298 297 296 296 295 294 293 292 290 289 288 286 284 282 280 278 277 276 276 275 275 275 275 275 275 275 275 275 275 275 275 275 275 276 276 275 275 275 276 275 275 275 275 275 275 275 275 274 274 274 273 273 273 273 273
301 300 300 299 299 298 298 297 297 296 295 295 294 293 292 291 290 289 288 287 285 283 282 280 279 278 277 276 275 275 275 275 275 275 275 275 275 275 275 275 275 275 275 275 275 275 275 275 275 275 275 275 275 274 274 274 274 274 274 274 274 274 274
300 299 299 298 297 296 296 295 295 294 293 293 292 291 290 290 289 288 287 286 284 283 282 281 279 278 277 277 276 276 275 275 275 275 276 276 276 276 276 275 275 275 276 276 276 276 276 275 275 275 275 275 275 275 275 275 275 275 275 275 275 275 276
298 297 296 296 295 294 293 293 292 291 291 290 290 289 288 288 287 286 285 284 283 282 281 280 279 278 277 276 276 275 275 275 274 274 274 274 274 274 274 274 274 274 274 275 275 275 275 275 276 276 276 276 276 276 275 275 276 276 276 276 276 277 277